EN

Hourly Weather Luebo

Today, 29 November, Sunday

Time Temperature Precipitation Wind Pressure Humidity
00:00 +20°C° 0 mm 0 mps 717 mmHg 98%
01:00 +20°C° 0 mm 0 mps 717 mmHg 98%
02:00 +20°C° 0 mm 0 mps 716 mmHg 98%
03:00 +20°C° 0 mm 0 mps 716 mmHg 98%
04:00 +20°C° 0 mm 0 mps 716 mmHg 98%
05:00 +21°C° 0 mm 0 mps 717 mmHg 95%
06:00 +22°C° 0 mm 0 mps 718 mmHg 93%
07:00 +22°C° 0 mm 0 mps 718 mmHg 90%
08:00 +24°C° 0.4 mm 0 mps 718 mmHg 83%
09:00 +28°C° 0.4 mm 1 mps 718 mmHg 76%
10:00 +30°C° 0.4 mm 1 mps 718 mmHg 69%
11:00 +31°C° 0.6 mm 1 mps 717 mmHg 65%
12:00 +31°C° 0.6 mm 1 mps 717 mmHg 62%
13:00 +32°C° 0.6 mm 1 mps 716 mmHg 59%
14:00 +31°C° 0.5 mm 1 mps 716 mmHg 63%
15:00 +30°C° 0.5 mm 2 mps 715 mmHg 68%
16:00 +29°C° 0.5 mm 2 mps 715 mmHg 73%
17:00 +27°C° 1.2 mm 1 mps 715 mmHg 81%
18:00 +25°C° 1.2 mm 1 mps 716 mmHg 90%
19:00 +22°C° 1.2 mm 0 mps 716 mmHg 98%
20:00 +21°C° 0 mm 0 mps 716 mmHg 98%
21:00 +21°C° 0 mm 0 mps 717 mmHg 98%
22:00 +21°C° 0 mm 0 mps 717 mmHg 98%
23:00 +21°C° 0 mm 0 mps 717 mmHg 98%

Tomorrow, 30 November, Monday

Time Temperature Precipitation Wind Pressure Humidity
00:00 +21°C° 0 mm 0 mps 717 mmHg 98%
01:00 +21°C° 0 mm 0 mps 717 mmHg 99%
02:00 +21°C° 0 mm 0 mps 717 mmHg 99%
03:00 +21°C° 0 mm 0 mps 716 mmHg 99%
04:00 +20°C° 0 mm 0 mps 716 mmHg 99%
05:00 +21°C° 0 mm 0 mps 717 mmHg 98%
06:00 +22°C° 0 mm 0 mps 718 mmHg 96%
07:00 +22°C° 0 mm 0 mps 719 mmHg 95%
08:00 +25°C° 0.1 mm 0 mps 719 mmHg 82%
09:00 +27°C° 0.1 mm 0 mps 719 mmHg 68%
10:00 +30°C° 0.1 mm 0 mps 719 mmHg 55%
11:00 +33°C° 0 mm 1 mps 718 mmHg 50%
12:00 +34°C° 0 mm 1 mps 717 mmHg 46%
13:00 +34°C° 0 mm 1 mps 716 mmHg 41%
14:00 +34°C° 0 mm 1 mps 715 mmHg 46%
15:00 +31°C° 0 mm 0 mps 715 mmHg 51%
16:00 +30°C° 0 mm 0 mps 714 mmHg 56%
17:00 +28°C° 0 mm 0 mps 715 mmHg 61%
18:00 +27°C° 0 mm 0 mps 715 mmHg 65%
19:00 +25°C° 0 mm 0 mps 716 mmHg 69%
20:00 +24°C° 0.8 mm 0 mps 716 mmHg 78%
21:00 +23°C° 0.8 mm 0 mps 717 mmHg 86%
22:00 +21°C° 0.8 mm 0 mps 717 mmHg 95%
23:00 +21°C° 0.3 mm 0 mps 717 mmHg 96%

Day after tomorrow, 1 December, Tuesday

Time Temperature Precipitation Wind Pressure Humidity
00:00 +21°C° 0.3 mm 0 mps 716 mmHg 97%
01:00 +21°C° 0.3 mm 0 mps 716 mmHg 98%
02:00 +21°C° 0.1 mm 0 mps 716 mmHg 98%
03:00 +20°C° 0.1 mm 0 mps 716 mmHg 98%
04:00 +20°C° 0.1 mm 0 mps 716 mmHg 98%
05:00 +21°C° 0.1 mm 0 mps 717 mmHg 97%
06:00 +22°C° 0.1 mm 0 mps 717 mmHg 95%
07:00 +23°C° 0.1 mm 0 mps 718 mmHg 93%
08:00 +25°C° 0 mm 0 mps 718 mmHg 79%
09:00 +28°C° 0 mm 0 mps 718 mmHg 65%
10:00 +33°C° 0 mm 1 mps 718 mmHg 51%
11:00 +34°C° 0 mm 1 mps 717 mmHg 47%
12:00 +35°C° 0 mm 1 mps 716 mmHg 42%
13:00 +35°C° 0 mm 1 mps 715 mmHg 37%
14:00 +34°C° 0 mm 1 mps 715 mmHg 45%
15:00 +33°C° 0 mm 1 mps 714 mmHg 53%
16:00 +29°C° 0 mm 0 mps 714 mmHg 61%
17:00 +28°C° 0 mm 0 mps 714 mmHg 64%
18:00 +27°C° 0 mm 0 mps 715 mmHg 68%
19:00 +25°C° 0 mm 0 mps 715 mmHg 72%
20:00 +26°C° 0.1 mm 1 mps 716 mmHg 77%
21:00 +25°C° 0.1 mm 1 mps 716 mmHg 83%
22:00 +25°C° 0.1 mm 1 mps 716 mmHg 88%
23:00 +24°C° 0.4 mm 1 mps 716 mmHg 91%

2 December, Wednesday

Time Temperature Precipitation Wind Pressure Humidity
00:00 +21°C° 0.4 mm 0 mps 715 mmHg 94%
01:00 +21°C° 0.4 mm 0 mps 715 mmHg 97%
02:00 +21°C° 0 mm 0 mps 715 mmHg 97%
03:00 +20°C° 0 mm 0 mps 715 mmHg 97%
04:00 +20°C° 0 mm 0 mps 716 mmHg 98%
05:00 +21°C° 0 mm 0 mps 716 mmHg 96%
06:00 +22°C° 0 mm 0 mps 717 mmHg 94%
07:00 +22°C° 0 mm 0 mps 717 mmHg 92%
08:00 +24°C° 0.1 mm 0 mps 717 mmHg 83%
09:00 +26°C° 0.1 mm 0 mps 717 mmHg 75%
10:00 +28°C° 0.1 mm 0 mps 717 mmHg 66%
11:00 +28°C° 1.4 mm 0 mps 716 mmHg 69%
12:00 +28°C° 1.4 mm 0 mps 715 mmHg 72%
13:00 +29°C° 1.4 mm 0 mps 714 mmHg 75%
14:00 +28°C° 1.4 mm 0 mps 714 mmHg 80%
15:00 +27°C° 1.4 mm 0 mps 714 mmHg 84%
16:00 +26°C° 1.4 mm 0 mps 713 mmHg 89%
17:00 +25°C° 0.2 mm 0 mps 714 mmHg 91%
18:00 +24°C° 0.2 mm 0 mps 714 mmHg 93%
19:00 +22°C° 0.2 mm 0 mps 715 mmHg 95%
20:00 +22°C° 0.1 mm 0 mps 715 mmHg 96%
21:00 +22°C° 0.1 mm 0 mps 715 mmHg 96%
22:00 +21°C° 0.1 mm 0 mps 716 mmHg 97%
23:00 +21°C° 1.1 mm 0 mps 716 mmHg 97%

3 December, Thursday

Time Temperature Precipitation Wind Pressure Humidity
00:00 +23°C° 1.1 mm 1 mps 715 mmHg 98%
01:00 +23°C° 1.1 mm 1 mps 715 mmHg 98%
02:00 +23°C° 0.1 mm 1 mps 715 mmHg 98%
03:00 +22°C° 0.1 mm 1 mps 715 mmHg 98%
04:00 +22°C° 0.1 mm 1 mps 716 mmHg 98%
05:00 +21°C° 0.1 mm 0 mps 716 mmHg 98%
06:00 +21°C° 0.1 mm 0 mps 717 mmHg 97%
07:00 +22°C° 0.1 mm 0 mps 717 mmHg 96%
08:00 +22°C° 0.2 mm 0 mps 718 mmHg 97%
09:00 +22°C° 0.2 mm 0 mps 718 mmHg 97%
10:00 +22°C° 0.2 mm 0 mps 718 mmHg 97%
11:00 +22°C° 0.5 mm 0 mps 718 mmHg 97%
12:00 +24°C° 0.5 mm 1 mps 717 mmHg 98%
13:00 +23°C° 0.5 mm 1 mps 717 mmHg 98%
14:00 +23°C° 0.4 mm 1 mps 716 mmHg 98%
15:00 +23°C° 0.4 mm 1 mps 716 mmHg 98%
16:00 +21°C° 0.4 mm 0 mps 716 mmHg 98%
17:00 +21°C° 0.1 mm 0 mps 716 mmHg 98%
18:00 +21°C° 0.1 mm 0 mps 717 mmHg 99%
19:00 +20°C° 0.1 mm 0 mps 717 mmHg 99%
20:00 +20°C° 0 mm 0 mps 717 mmHg 99%
21:00 +20°C° 0 mm 0 mps 717 mmHg 99%
22:00 +20°C° 0 mm 0 mps 717 mmHg 99%
23:00 +20°C° 0.1 mm 0 mps 717 mmHg 98%

4 December, Friday

Time Temperature Precipitation Wind Pressure Humidity
00:00 +20°C° 0.1 mm 0 mps 717 mmHg 98%
01:00 +20°C° 0.1 mm 0 mps 717 mmHg 98%
02:00 +20°C° 0 mm 0 mps 717 mmHg 98%
03:00 +20°C° 0 mm 0 mps 717 mmHg 98%
04:00 +20°C° 0 mm 0 mps 717 mmHg 98%
05:00 +20°C° 0 mm 0 mps 717 mmHg 97%
06:00 +21°C° 0 mm 0 mps 718 mmHg 97%
07:00 +21°C° 0 mm 0 mps 718 mmHg 96%
08:00 +22°C° 0.1 mm 0 mps 718 mmHg 91%
09:00 +23°C° 0.1 mm 0 mps 719 mmHg 86%
10:00 +24°C° 0.1 mm 0 mps 719 mmHg 81%
11:00 +24°C° 0.3 mm 0 mps 718 mmHg 83%
12:00 +24°C° 0.3 mm 0 mps 718 mmHg 85%
13:00 +24°C° 0.3 mm 0 mps 717 mmHg 87%
14:00 +24°C° 0.1 mm 0 mps 717 mmHg 85%
15:00 +25°C° 0.1 mm 0 mps 716 mmHg 84%
16:00 +25°C° 0.1 mm 0 mps 716 mmHg 83%
17:00 +24°C° 0 mm 0 mps 716 mmHg 86%
18:00 +23°C° 0 mm 0 mps 716 mmHg 90%
19:00 +22°C° 0 mm 0 mps 717 mmHg 93%
20:00 +21°C° 0 mm 0 mps 717 mmHg 94%
21:00 +21°C° 0 mm 0 mps 717 mmHg 94%
22:00 +21°C° 0 mm 0 mps 717 mmHg 95%
23:00 +21°C° 0 mm 0 mps 717 mmHg 95%
Show more